[[{"header":{"parameterUnit":"m.s-1","parameterCategory":1,"la1":30.2991,"la2":30.254,"lo1":-89.0895,"lo2":-89.0444,"dx":0.0017,"dy":0.0017,"nx":28,"ny":28,"refTime":"2022-11-29T09:00:00:Z","depth":0,"parameterNumber":2,"parameterNumberName":"U-component_of_WINDS"},"data":[0,0,0,0,0,0,0,0,0,0,0,0,0,0,0,0,0,0,0,0,0,0,0,0,0,0,0,0,0,0,0,0,0,0,0,0,0,0,0,0,0,0,0,0,0,0,0,0,0,0,0,0,0,0,0,0,0,0,-1.2649,-1.2648,0,-1.2608,-1.2607,-1.2607,-1.255,-1.2549,-1.2548,-1.2547,-1.2507,-1.2507,-1.2507,0,0,0,0,0,0,0,0,0,0,0,0,0,-1.268,-1.268,-1.2649,-1.2648,-1.2648,-1.2608,-1.2607,-1.2606,-1.255,-1.2549,-1.2548,-1.2547,-1.2507,-1.2507,-1.2507,0,0,0,0,0,0,0,0,0,0,0,0,0,-1.2656,-1.268,-1.2649,-1.2615,-1.2611,-1.2608,-1.2607,-1.2606,-1.2551,-1.2549,-1.2548,-1.2546,-1.2507,-1.2507,-1.2507,-1.2534,0,0,-1.2506,-1.2506,0,0,0,0,0,0,0,0,-1.2657,-1.2655,-1.262,-1.2617,-1.2613,-1.2582,-1.2603,-1.2582,-1.2551,-1.2574,-1.2547,-1.2546,-1.2533,-1.2531,-1.2526,-1.2532,-1.253,-1.2506,-1.2506,-1.2506,-1.2505,0,0,0,0,0,0,0,-1.2659,-1.2656,-1.2632,-1.262,-1.2615,-1.2602,-1.2597,-1.2599,-1.2562,-1.2572,-1.2567,-1.2563,-1.2531,-1.2527,-1.2525,-1.2529,-1.2506,-1.2506,-1.2505,-1.2505,-1.2555,-1.2557,0,0,0,0,0,0,-1.2665,-1.2658,-1.2634,-1.2631,-1.2632,-1.2603,-1.2597,-1.2594,-1.2562,-1.2556,-1.2565,-1.2561,-1.2528,-1.2525,-1.2523,-1.2553,-1.2506,-1.2505,-1.2505,-1.2554,-1.2556,-1.2557,0,0,0,0,0,0,-1.2666,-1.2664,-1.2635,-1.2643,-1.2639,-1.2604,-1.2601,-1.2594,-1.2589,-1.2557,-1.255,-1.2567,-1.2527,-1.2524,-1.2532,-1.2551,-1.2505,-1.2505,-1.2552,-1.2555,-1.2557,-1.2612,0,0,0,0,0,0,-1.2668,-1.2664,-1.2674,-1.2644,-1.2638,-1.2644,-1.2602,-1.2594,-1.2589,-1.2583,-1.2557,-1.2551,-1.2525,-1.2532,-1.2531,-1.255,-1.2505,-1.255,-1.2553,-1.2556,-1.2609,-1.2616,-1.2623,0,0,0,0,0,-1.2669,-1.2691,-1.2675,-1.2672,-1.2649,-1.2645,-1.2642,-1.2611,-1.259,-1.26,-1.2579,-1.2552,-1.2549,-1.2534,-1.2532,-1.255,-1.2549,-1.2552,-1.2556,-1.2605,-1.2615,-1.2622,0,0,0,0,0,0,-1.2725,-1.2687,-1.2668,-1.2681,-1.2667,-1.2635,-1.2646,-1.2622,-1.2613,-1.2609,-1.2572,-1.2567,-1.2579,-1.2566,-1.2549,-1.2575,-1.2545,-1.2548,-1.2583,-1.2592,-1.2599,-1.2602,-1.2504,0,0,0,0,0,-1.2739,-1.2737,-1.2705,-1.272,-1.2713,-1.2681,-1.2678,-1.2656,-1.264,-1.2633,-1.2613,-1.2599,-1.2594,-1.2593,-1.2587,-1.2607,-1.26,-1.2619,-1.2626,-1.2632,-1.2635,-1.2645,-1.2653,-1.2568,-1.2568,-1.2568,0,0,-1.2767,-1.2746,-1.2748,-1.273,-1.2716,-1.2717,-1.2676,-1.2678,-1.2678,-1.2634,-1.2639,-1.2624,-1.2606,-1.262,-1.2625,-1.2609,-1.2657,-1.2636,-1.2641,-1.2641,-1.2649,-1.2657,-1.2664,-1.2571,-1.257,-1.257,0,0,-1.2819,-1.2803,-1.2814,-1.2801,-1.2781,-1.2759,-1.2762,-1.2734,-1.2723,-1.2728,-1.2694,-1.2695,-1.2688,-1.2676,-1.267,-1.2719,-1.2694,-1.2718,-1.2755,-1.2765,-1.2772,-1.2777,-1.2795,-1.2802,-1.2721,-1.2722,-1.2722,0,-1.2857,-1.2856,-1.2823,-1.2827,-1.282,-1.278,-1.2791,-1.278,-1.2759,-1.2756,-1.2739,-1.273,-1.2715,-1.2726,-1.2738,-1.2734,-1.2736,-1.2721,-1.2773,-1.2779,-1.2783,-1.28,-1.2806,-1.2725,-1.2724,-1.2724,-1.2724,0,-1.2904,-1.2904,-1.2915,-1.2895,-1.289,-1.2898,-1.2867,-1.2866,-1.2845,-1.2826,-1.2832,-1.2812,-1.2802,-1.2803,-1.2783,-1.2812,-1.2802,-1.278,-1.2748,-1.2795,-1.281,-1.2816,-1.2729,-1.2728,-1.2727,-1.2726,0,0,-1.2989,-1.2952,-1.2956,-1.2947,-1.2922,-1.2921,-1.2928,-1.2917,-1.2917,-1.2905,-1.2909,-1.2905,-1.2884,-1.2877,-1.2855,-1.2864,-1.2904,-1.284,-1.2839,-1.2852,-1.2935,-1.2952,-1.296,-1.2888,-1.2889,-1.2889,-1.2937,0,-1.3036,-1.3044,-1.3015,-1.3031,-1.303,-1.2992,-1.2998,-1.2984,-1.2966,-1.2964,-1.2945,-1.2943,-1.2915,-1.291,-1.2917,-1.2898,-1.292,-1.2894,-1.2892,-1.2892,-1.2897,-1.2967,-1.2985,-1.3031,-1.2942,-1.2943,-1.2944,0,-1.3092,-1.3082,-1.3097,-1.3072,-1.307,-1.3076,-1.3064,-1.3063,-1.3046,-1.3033,-1.3025,-1.2999,-1.3005,-1.2975,-1.2982,-1.2965,-1.2963,-1.2954,-1.2955,-1.2953,-1.2921,-1.2968,-1.3044,-1.3051,-1.2953,-1.2952,-1.2951,0,-1.3152,-1.3143,-1.3151,-1.3144,-1.3115,-1.3119,-1.3107,-1.3089,-1.3085,-1.3076,-1.3073,-1.3064,-1.306,-1.3054,-1.3028,-1.3009,-1.3038,-1.3006,-1.3028,-1.3028,-1.3035,-1.3035,-1.3112,-1.3034,-1.3034,-1.3034,-1.3034,0,-1.3208,-1.3219,-1.3178,-1.3183,-1.3194,-1.3161,-1.3174,-1.3158,-1.3143,-1.3144,-1.3112,-1.3114,-1.3079,-1.3078,-1.3057,-1.3067,-1.3065,-1.3055,-1.3049,-1.3057,-1.3059,-1.3055,-1.3051,-1.3036,-1.3035,-1.3035,-1.3035,0,-1.3277,-1.325,-1.3256,-1.3228,-1.3221,-1.3231,-1.3207,-1.3211,-1.3191,-1.3194,-1.3193,-1.3163,-1.3161,-1.3133,-1.3125,-1.3111,-1.3128,-1.3117,-1.3134,-1.313,-1.3152,-1.3151,-1.323,-1.3239,-1.3156,-1.3157,-1.3157,0,-1.3314,-1.3321,-1.3294,-1.3292,-1.3282,-1.328,-1.3276,-1.3244,-1.3241,-1.3223,-1.323,-1.3224,-1.3218,-1.3215,-1.3193,-1.3187,-1.3175,-1.3203,-1.3174,-1.3182,-1.3175,-1.3175,-1.3176,-1.3209,-1.321,-1.3211,-1.3212,0,-1.3382,-1.3369,-1.3363,-1.3354,-1.3349,-1.334,-1.3329,-1.333,-1.3296,-1.3294,-1.329,-1.3286,-1.3277,-1.3272,-1.3262,-1.325,-1.3226,-1.3222,-1.3226,-1.3234,-1.3244,-1.3239,-1.315,-1.322,-1.3219,-1.3218,-1.3218,-1.3218,-1.3436,-1.3441,-1.3423,-1.3418,-1.3407,-1.3397,-1.3399,-1.3381,-1.3377,-1.3367,-1.3349,-1.3348,-1.3332,-1.3316,-1.3307,-1.3306,-1.3291,-1.3298,-1.33,-1.3302,-1.3306,-1.3244,-1.3304,-1.3304,-1.3304,-1.3303,-1.3303,0,-1.3503,-1.3489,-1.3485,-1.3471,-1.3468,-1.3444,-1.3431,-1.343,-1.343,-1.3417,-1.3411,-1.3408,-1.3403,-1.3381,-1.3374,-1.3378,-1.3367,-1.3377,-1.3377,-1.3375,-1.332,-1.3316,-1.3387,-1.3387,-1.3387,-1.3387,-1.3387,-1.3387,-1.3537,-1.3544,-1.3529,-1.3531,-1.3517,-1.3515,-1.351,-1.3502,-1.3491,-1.3488,-1.3484,-1.347,-1.3453,-1.3445,-1.344,-1.3434,-1.3433,-1.3447,-1.3437,-1.3386,-1.3378,-1.3371,-1.3367,-1.3447,-1.3447,-1.3492,-1.3492,-1.3493]},{"header":{"parameterUnit":"m.s-1","parameterCategory":1,"la1":30.2991,"la2":30.254,"lo1":-89.0895,"lo2":-89.0444,"dx":0.0017,"dy":0.0017,"nx":28,"ny":28,"refTime":"2022-11-29T09:00:00:Z","depth":0,"parameterNumber":3,"parameterNumberName":"V-component_of_WINDS"},"data":[0,0,0,0,0,0,0,0,0,0,0,0,0,0,0,0,0,0,0,0,0,0,0,0,0,0,0,0,0,0,0,0,0,0,0,0,0,0,0,0,0,0,0,0,0,0,0,0,0,0,0,0,0,0,0,0,0,0,1.4755,1.4754,0,1.4735,1.4734,1.4734,1.4681,1.468,1.4679,1.4678,1.4659,1.466,1.466,0,0,0,0,0,0,0,0,0,0,0,0,0,1.4749,1.4749,1.4755,1.4754,1.4754,1.4735,1.4734,1.4734,1.4681,1.468,1.4679,1.4677,1.4659,1.466,1.466,0,0,0,0,0,0,0,0,0,0,0,0,0,1.4743,1.475,1.4755,1.4725,1.4723,1.4735,1.4734,1.4734,1.4682,1.468,1.4678,1.4677,1.4659,1.466,1.466,1.47,0,0,1.4663,1.4663,0,0,0,0,0,0,0,0,1.4743,1.4743,1.473,1.4727,1.4724,1.4709,1.4726,1.4723,1.4682,1.4697,1.4678,1.4676,1.4677,1.4676,1.4676,1.4699,1.4698,1.4663,1.4664,1.4664,1.4664,0,0,0,0,0,0,0,1.4744,1.4743,1.4747,1.473,1.4726,1.4714,1.4711,1.4725,1.4697,1.4696,1.4692,1.469,1.4675,1.4676,1.4676,1.4698,1.4663,1.4664,1.4664,1.4665,1.4753,1.4755,0,0,0,0,0,0,1.4748,1.4744,1.4747,1.4746,1.473,1.4715,1.4712,1.4715,1.4697,1.4692,1.4692,1.4688,1.4675,1.4675,1.4675,1.472,1.4664,1.4665,1.4665,1.4751,1.4754,1.4756,0,0,0,0,0,0,1.4748,1.4749,1.4748,1.4744,1.4743,1.4717,1.4721,1.4716,1.4716,1.4694,1.4689,1.4697,1.4674,1.4674,1.4694,1.4719,1.4665,1.4666,1.4749,1.4752,1.4755,1.4812,0,0,0,0,0,0,1.4748,1.4749,1.4763,1.4745,1.4744,1.4768,1.4723,1.4717,1.4718,1.4712,1.4697,1.4693,1.4672,1.4693,1.4695,1.4719,1.4667,1.4747,1.475,1.4754,1.4808,1.4816,1.4824,0,0,0,0,0,1.4748,1.478,1.4764,1.4765,1.4761,1.4769,1.4768,1.4743,1.472,1.4734,1.472,1.4694,1.4716,1.4696,1.4697,1.4722,1.4745,1.4749,1.4753,1.4804,1.4815,1.4823,0,0,0,0,0,0,1.4803,1.4777,1.4759,1.4786,1.478,1.476,1.4777,1.4755,1.4756,1.4751,1.472,1.4717,1.4742,1.4734,1.4712,1.476,1.4726,1.4731,1.4764,1.4774,1.4782,1.4784,1.4667,0,0,0,0,0,1.4818,1.4826,1.4804,1.483,1.4828,1.4803,1.4806,1.4787,1.478,1.4777,1.4764,1.4759,1.4764,1.4769,1.4773,1.4806,1.4803,1.4824,1.4832,1.4839,1.4843,1.4862,1.4871,1.4769,1.4769,1.4769,0,0,1.485,1.4837,1.4844,1.4841,1.4834,1.4844,1.4802,1.4814,1.4821,1.4779,1.4798,1.4788,1.478,1.4808,1.4819,1.4802,1.4871,1.4844,1.485,1.485,1.4867,1.4876,1.4885,1.4772,1.4771,1.4771,0,0,1.4912,1.4903,1.4924,1.4918,1.4908,1.4892,1.4897,1.488,1.4872,1.489,1.4859,1.4868,1.4878,1.4874,1.4873,1.4935,1.4911,1.4937,1.4979,1.4997,1.5005,1.5012,1.5035,1.5044,1.4942,1.4942,1.4942,0,1.4953,1.4966,1.4938,1.4952,1.4953,1.4915,1.4936,1.4932,1.4924,1.4925,1.4906,1.4918,1.491,1.4936,1.4952,1.4952,1.4958,1.4939,1.5006,1.5013,1.5019,1.5041,1.5049,1.4945,1.4945,1.4944,1.4944,0,1.5017,1.5027,1.5045,1.5038,1.504,1.5058,1.5034,1.5039,1.5021,1.5007,1.5026,1.5015,1.5017,1.5021,1.5003,1.5046,1.5035,1.5012,1.4977,1.5033,1.5052,1.506,1.495,1.4949,1.4948,1.4947,0,0,1.5114,1.5091,1.5098,1.5095,1.5081,1.5089,1.5106,1.5107,1.5112,1.5108,1.5122,1.5132,1.511,1.511,1.5091,1.5107,1.5158,1.5081,1.508,1.5096,1.5205,1.5223,1.5233,1.5142,1.5143,1.5144,1.5206,0,1.5173,1.52,1.5176,1.5207,1.5217,1.5181,1.5196,1.519,1.5177,1.5184,1.517,1.5178,1.5148,1.5148,1.5162,1.5148,1.5179,1.5143,1.5155,1.5156,1.5159,1.5243,1.5263,1.5321,1.5213,1.5214,1.5215,0,1.5246,1.5245,1.5278,1.5263,1.5266,1.528,1.5279,1.5286,1.5278,1.5268,1.5268,1.5245,1.5261,1.5228,1.525,1.5227,1.523,1.5224,1.5226,1.5227,1.5189,1.5247,1.5339,1.5348,1.5227,1.5226,1.5225,0,1.5314,1.5321,1.5342,1.534,1.5323,1.5334,1.5327,1.5318,1.532,1.532,1.5322,1.5324,1.5325,1.5327,1.5306,1.5283,1.5332,1.5296,1.5325,1.5325,1.5337,1.5336,1.5432,1.5338,1.5338,1.5338,1.5338,0,1.5384,1.5405,1.5372,1.5385,1.5409,1.5381,1.5405,1.5395,1.5388,1.5399,1.5368,1.5379,1.535,1.5358,1.5341,1.5363,1.5364,1.5357,1.5352,1.536,1.5361,1.5362,1.5358,1.534,1.534,1.5339,1.5339,0,1.5464,1.5442,1.5463,1.5445,1.5441,1.5459,1.5444,1.5456,1.5442,1.5456,1.5458,1.5436,1.5444,1.5423,1.5428,1.5417,1.5448,1.5437,1.5451,1.5448,1.5478,1.5476,1.5578,1.559,1.5488,1.5489,1.549,0,1.551,1.5526,1.551,1.5514,1.5509,1.5518,1.552,1.5494,1.5497,1.5491,1.5504,1.5509,1.5512,1.5527,1.5512,1.5516,1.5505,1.5541,1.5506,1.5513,1.5507,1.5506,1.5508,1.5548,1.5549,1.555,1.5551,0,1.5594,1.5583,1.5587,1.5588,1.5592,1.5591,1.5589,1.5595,1.5566,1.5573,1.558,1.5583,1.5588,1.5595,1.5595,1.5589,1.5566,1.5562,1.5569,1.5578,1.5585,1.5582,1.5471,1.556,1.5559,1.5559,1.5558,1.5558,1.5659,1.5672,1.5662,1.5669,1.5664,1.5662,1.5673,1.566,1.5666,1.5668,1.5652,1.5663,1.5656,1.5655,1.5652,1.5661,1.5645,1.5655,1.5657,1.566,1.5666,1.5583,1.5661,1.566,1.566,1.566,1.566,0,1.5742,1.5735,1.574,1.5738,1.5743,1.572,1.5716,1.5722,1.5733,1.5728,1.5732,1.5741,1.5748,1.5733,1.5737,1.5748,1.5737,1.575,1.5749,1.5748,1.5679,1.5673,1.5758,1.5758,1.5758,1.5758,1.5758,1.5758,1.5786,1.5807,1.5795,1.5813,1.5805,1.5816,1.5816,1.5815,1.5811,1.5823,1.5828,1.5818,1.581,1.5814,1.5819,1.5814,1.5818,1.5834,1.5827,1.5763,1.5753,1.5744,1.5738,1.5835,1.5835,1.5895,1.5895,1.5896]}]]